Regional Weather Roundup
Issued by NWS

Home | Current Version | Previous Version | Text Only | Print | Product List | Glossary On
Versions: 1 2 3 4 5 6 7 8 9 10 11 12 13 14 15 16 17 18 19 20 21 22 23 24 25 26 27 28 29 30 31 32 33 34 35 36 37 38 39 40 41 42 43 44 45 46 47 48 49 50
000
ASUS44 KFWD 120303
RWRTX
NORTH TEXAS HOURLY WEATHER ROUNDUP
NATIONAL WEATHER SERVICE FORT WORTH TX
900 PM CST THU FEB 11 2016

NOTE: "FAIR" INDICATES FEW OR NO CLOUDS BELOW 12,000 FEET WITH NO
SIGNIFICANT WEATHER AND/OR OBSTRUCTIONS TO VISIBILITY.

TXZ118-119-120400-
DALLAS/FORT WORTH METROPLEX

CITY           SKY/WX    TMP DP  RH WIND       PRES   REMARKS
DFW AIRPORT    PTCLDY    56  37  49 N6        30.11R
DALLAS LOVE    PTCLDY    58  38  47 NE3       30.11R
FTW MEACHAM    CLEAR     60  37  42 NE8       30.11R
DAL-EXECUTIVE  CLEAR     57  35  43 CALM      30.10R
FTW-ALLIANCE   PTCLDY    48  36  63 CALM      30.11S
FTW-NAS-JRB    CLEAR     58  37  45 NW5       30.12R
FTW-SPINKS     CLEAR     53  37  53 CALM      30.13R
ARLINGTON      CLEAR     56  37  49 NE3       30.11R
GRAND PRAIRIE  CLEAR     58  36  44 N3        30.13R
ADDISON        CLEAR     64  37  36 CALM      30.12R
MESQUITE       CLEAR     59  36  41 N3        30.11S
LANCASTER      CLEAR     60  31  33 N5        30.12R
$$

TXZ091>094-102>105-117-120-121-131>134-120400-
NORTH CENTRAL TEXAS

CITY           SKY/WX    TMP DP  RH WIND       PRES   REMARKS
SHRMAN/DENISON CLEAR     55  31  41 NE5       30.14S
GAINESVILLE    CLEAR     53  33  46 N6        30.15S
BRIDGEPORT     CLEAR     51  38  61 CALM      30.14R
DECATUR        CLEAR     56  32  39 E6        30.13R
DENTON         CLEAR     55  34  45 N8        30.12R
MCKINNEY       CLEAR     57  36  45 N7        30.12R
GREENVILLE     CLEAR     50  41  71 CALM      30.12S
ROCKWALL       CLEAR     59  38  46 SE5       30.11S
TERRELL        CLEAR     53  38  56 NE5       30.11R
WAXAHACHIE     PTCLDY    61  37  42 NE6       30.12S
CLEBURNE       PTCLDY    61  36  39 NE9       30.12S
GRANBURY       CLEAR     53  37  54 CALM      30.12S
$$

TXZ083>090-098>101-113>116-127>130-139>142-154-155-120400-
WESTERN NORTH TEXAS

CITY           SKY/WX    TMP DP  RH WIND       PRES   REMARKS
WICHITA FALLS  CLEAR     45  35  68 N9        30.15R
WF-KICKAPOO    CLEAR     52  35  52 N6        30.16R
VERNON         CLOUDY    51  32  48 N6        30.17S
ABILENE        CLEAR     58  32  37 NE6       30.15R
ABILENE-DYESS  CLEAR     50  33  52 NW5       30.14R
MINERAL WELLS  CLEAR     53  35  50 CALM      30.10R
STEPHENVILLE   CLEAR     60  31  33 N5        30.14R
COMANCHE       CLEAR     61  33  35 NW6       30.12R
BROWNWOOD      CLEAR     59  28  31 N6        30.12R
$$

TXZ143>147-156>162-174-175-120400-
CENTRAL TEXAS

CITY           SKY/WX    TMP DP  RH WIND       PRES   REMARKS
WACO           CLEAR     61  38  42 S6        30.08R
WACO-MCGREGOR  CLEAR     64  37  36 S8        30.09R
HILLSBORO      CLEAR     64  36  35 E8        30.10R
CORSICANA      CLEAR     63  39  41 E6        30.11R
MEXIA          CLEAR     60  37  41 S10       30.09S
HEARNE         CLEAR     63  39  41 SE7       30.12R
TEMPLE         PTCLDY    61  36  39 S12       30.10R
KILLEEN        CLEAR     66  34  30 S10       30.09S
KILLEEN-SKYLRK CLEAR     63  37  38 S9        30.10R
FORT HOOD      CLEAR     65  35  33 S6        30.08R
HAMILTON       CLEAR     60  36  39 S6        30.12R
LAMPASAS       CLEAR     63  34  34 SW3       30.09S
$$

TXZ095>097-106>112-122>126-135>138-148>153-164>167-120400-
EAST TEXAS

CITY           SKY/WX    TMP DP  RH WIND       PRES   REMARKS
PARIS          CLEAR     54  36  50 N5        30.12S
SULPHUR SPRNGS CLEAR     52  40  63 CALM      30.13S
MOUNT PLEASANT CLEAR     57  38  50 NE7       30.14R
GILMER         CLEAR     54  37  52 CALM      30.11R
MINEOLA        CLEAR     52  37  58 CALM      30.12R
TYLER          CLEAR     57  37  47 SE3       30.11R
LONGVIEW       PTCLDY    53  40  61 S3        30.10S
MARSHALL       PTCLDY    50  38  62 CALM      30.12S
ATHENS         CLEAR     52  37  58 CALM      30.09S
PALESTINE      PTCLDY    62  40  44 CALM      30.11S
JACKSONVILLE   CLEAR     66  39  36 S5        30.13S
HENDERSON      CLEAR     52  41  66 CALM      30.12S
CENTER         FAIR      58  44  59 S9        30.11S
NACOGDOCHES    CLEAR     54  43  66 S3        30.12S
LUFKIN         CLEAR     56  43  61 SE3       30.13R
$$

SUPPLEMENTAL OBSERVATIONS (CENTRAL)

CITY           SKY/WX    TMP DP  RH WIND       PRES   REMARKS
$$

SUPPLEMENTAL OBSERVATIONS (WEST)

CITY           SKY/WX    TMP DP  RH WIND       PRES   REMARKS
$$

SUPPLEMENTAL OBSERVATIONS (EAST)

CITY           SKY/WX    TMP DP  RH WIND       PRES   REMARKS
$$

SUPPLEMENTAL OBSERVATIONS ARE A COLLECTION OF AUTOMATED INSTRUMENTS
THAT ARE MAINTAINED BY A VARIETY OF FEDERAL AND STATE AGENCIES.
CERTAIN ELEMENTS...SUCH AS HUMIDITY VALUES AND SUSTAINED WIND
SPEEDS...MAY BE APPROXIMATED.




USA.gov is the U.S. government's official web portal to all federal, state and local government web resources and services.